Regional Weather Roundup
Issued by NWS Albany, NY

Home | Current Version | Previous Version | Text Only | Print | Product List | Glossary On
Versions: 1 2 3 4 5 6 7 8 9 10 11 12 13 14 15 16 17 18 19 20 21 22 23 24 25 26 27 28 29 30 31 32 33 34 35 36 37 38 39 40 41 42 43 44 45 46 47 48 49 50
000
ASUS41 KALY 011010
RWRALY

NEW YORK STATE HOURLY WEATHER ROUNDUP
NATIONAL WEATHER SERVICE ALBANY NY
500 AM EST SUN FEB 01 2015

NOTE: "FAIR" INDICATES FEW OR NO CLOUDS BELOW 12,000 FEET WITH NO
SIGNIFICANT WEATHER AND/OR NO OBSTRUCTIONS TO VISIBILITY.

NYZ032-033-038>043-046>054-057>066-NYZ062>081-011100-
EAST


CITY           SKY/WX    TMP DP  RH WIND       PRES   REMARKS
ALBANY         FLURRIES  15   6  67 CALM      30.13S
GLENS FALLS    CLOUDY     5  -2  72 CALM      30.11F
POUGHKEEPSIE   MOCLDY    19   7  59 CALM      30.15S
NEWBURGH       CLOUDY    18   9  68 W6        30.15  WCI   9
MONTGOMERY     CLOUDY    17   7  64 SW8       30.14S WCI   7
WHITE PLAINS   CLEAR     18   5  57 VRB6      30.14S WCI  10
ISLIP          CLEAR      8   1  73 CALM      30.18R
NEW YORK CITY  MOCLDY    25  10  53 SW10      30.20S WCI  15
CENTRAL PARK   PTCLDY    24   8  50 MISG      30.21S
$$

NYZ005>009-017-018-044>046-055-056-011100-
CENTRAL


CITY           SKY/WX    TMP DP  RH WIND       PRES   REMARKS
FULTON         CLOUDY    22  16  78 N13       30.16R WCI  10
SYRACUSE       FLURRIES  21  20  96 N9        30.15R WCI  11
ROME           CLOUDY    13   9  84 CALM      30.15R
ELMIRA         CLOUDY    18  13  80 CALM      30.15R
BINGHAMTON     CLOUDY    18  13  80 W8        30.08R WCI   8
MONTICELLO     CLOUDY    18  10  73 W9        30.08R WCI   6
$$

NYZ026>034-041>043-011100-
NORTH


CITY           SKY/WX    TMP DP  RH WIND       PRES   REMARKS
WATERTOWN      CLOUDY    16   9  74 NE9       30.20R WCI   4
FORT DRUM      NOT AVBL
MASSENA        CLEAR      5   1  83 NW7       30.21R WCI  -7
SARANAC LAKE   LGT SNOW  10   6  84 N5        30.00R FOG     WCI   2
PLATTSBURGH    MOCLDY     7   4  87 N3        30.15R
$$

NYZ001>004-010>016-019>021-011100-
WEST


CITY           SKY/WX    TMP DP  RH WIND       PRES   REMARKS
NIAGARA FALLS  CLOUDY    26  22  84 W7        30.17R WCI  18
BUFFALO        FLURRIES  27  22  81 W7        30.16S WCI  19
DUNKIRK        CLOUDY    28  24  85 W5        30.17S WCI  23
JAMESTOWN      CLOUDY    21  18  86 SW3       30.10S
WELLSVILLE     CLOUDY    22  18  85 W5        30.09S WCI  16
ROCHESTER      LGT SNOW  28  23  81 NW8       30.17R WCI  20
PENN YAN       CLOUDY    27  21  78 SW6       30.14R WCI  20
$$

             KEY
       WCI = WIND CHILL INDEX
       VSB = VISIBILITY
       HX  = HEAT INDEX
$$


USA.gov is the U.S. government's official web portal to all federal, state and local government web resources and services.